Birchwood, AK

7:57 AM AKST on December 12, 2017 (GMT -0900)
Birchwood

Weather History for PABV - May, 2013

Change the Weather History Date:

Wednesday, May 15, 2013

  Actual Average Record
Temperature  
Mean Temperature 42 °F -  
Max Temperature 51 °F 54 °F 71 °F (2016)
Min Temperature 33 °F 36 °F 31 °F (1986)
Degree Days  
Heating Degree Days 23    
Moisture  
Dew Point 28 °F    
Average Humidity 61    
Maximum Humidity 93    
Minimum Humidity 24    
Precipitation  
Precipitation 0.00 in - - ()
Sea Level Pressure  
Sea Level Pressure 29.72 in    
Wind  
Wind Speed 4 mph (NE)    
Max Wind Speed 14 mph    
Max Gust Speed 22 mph    
Visibility 10 miles    
Events      
Averages and records for this station are not official NWS values.
T = Trace of Precipitation, MM = Missing Value Source: NWS Daily Summary

Daily Weather History Graph

Daily Weather History Graph

Search for Another Location

Airport or City:

Trip Planner

Search our weather history database for the weather conditions in past years. The results will help you decide how hot, cold, wet, or windy it might be!

Date:

Astronomy

May. 15, 2013 Rise Set
Actual Time 5:08 AM AKDT 10:42 PM AKDT
Civil Twilight 3:56 AM AKDT 11:55 PM AKDT
Nautical Twilight 2:26 AM AKDT 1:21 AM AKDT
Astronomical Twilight Sun does not rise Sun does not rise
Moon 10:15 AM AKDT (5/15) 2:15 AM AKDT (5/15)
Length of Visible Light 19h 59m
Length of Day
17h 34m
Waxing Crescent, 28% of the Moon is Illuminated
May 15
Waxing Crescent
May 17
First Quarter
May 24
Full
May 31
Last Quarter
Jun 8
New

Hourly Weather History & Observations

Time (AKDT) Temp. Windchill Dew Point Humidity Pressure Visibility Wind Dir Wind Speed Gust Speed Precip Events Conditions
12:16 AM 37.4 °F 33.8 °F 32.0 °F 81% 29.64 in 10.0 mi NE 4.6 mph - N/A   Overcast
12:36 AM 37.4 °F 32.8 °F 32.0 °F 81% 29.64 in 10.0 mi NE 5.8 mph - N/A   Overcast
12:56 AM 37.4 °F 32.8 °F 32.0 °F 81% 29.64 in 10.0 mi NE 5.8 mph - N/A   Overcast
1:16 AM 35.6 °F 31.7 °F 32.0 °F 87% 29.65 in 10.0 mi NE 4.6 mph - N/A   Mostly Cloudy
1:36 AM 35.6 °F - 30.2 °F 81% 29.65 in 10.0 mi Calm Calm - N/A   Overcast
1:56 AM 35.6 °F - 30.2 °F 81% 29.66 in 10.0 mi Calm Calm - N/A   Mostly Cloudy
2:16 AM 35.6 °F - 30.2 °F 81% 29.66 in 10.0 mi Calm Calm - N/A   Overcast
2:36 AM 35.6 °F 31.7 °F 33.8 °F 93% 29.67 in 10.0 mi NE 4.6 mph - N/A   Overcast
2:56 AM 35.6 °F - 33.8 °F 93% 29.68 in 10.0 mi Calm Calm - N/A   Overcast
3:16 AM 35.6 °F - 30.2 °F 81% 29.68 in 10.0 mi Calm Calm - N/A   Overcast
3:36 AM 33.8 °F - 30.2 °F 87% 29.68 in 10.0 mi Calm Calm - N/A   Overcast
3:56 AM 33.8 °F - 32.0 °F 93% 29.69 in 10.0 mi Calm Calm - N/A   Overcast
4:16 AM 33.8 °F - 32.0 °F 93% 29.69 in 10.0 mi Calm Calm - N/A   Overcast
4:36 AM 33.8 °F - 32.0 °F 93% 29.69 in 10.0 mi Calm Calm - N/A   Overcast
4:56 AM 33.8 °F - 30.2 °F 87% 29.69 in 10.0 mi Calm Calm - N/A   Overcast
5:16 AM 33.8 °F - 30.2 °F 87% 29.69 in 10.0 mi Calm Calm - N/A   Overcast
5:36 AM 35.6 °F - 30.2 °F 81% 29.70 in 10.0 mi Calm Calm - N/A   Overcast
5:56 AM 35.6 °F - 30.2 °F 81% 29.70 in 10.0 mi Calm Calm - N/A   Overcast
6:16 AM 35.6 °F - 30.2 °F 81% 29.71 in 10.0 mi Calm Calm - N/A   Overcast
6:36 AM 35.6 °F - 30.2 °F 81% 29.71 in 10.0 mi Calm Calm - N/A   Overcast
7:16 AM 37.4 °F - 30.2 °F 75% 29.72 in 10.0 mi Calm Calm - N/A   Overcast
7:36 AM 37.4 °F - 32.0 °F 81% 29.72 in 10.0 mi Calm Calm - N/A   Overcast
7:56 AM 37.4 °F 33.8 °F 33.8 °F 87% 29.72 in 10.0 mi NE 4.6 mph - N/A   Overcast
8:16 AM 39.2 °F 35.0 °F 33.8 °F 81% 29.73 in 10.0 mi ENE 5.8 mph - N/A   Mostly Cloudy
8:36 AM 39.2 °F 34.2 °F 33.8 °F 81% 29.73 in 10.0 mi NE 6.9 mph - N/A   Overcast
8:56 AM 39.2 °F 34.2 °F 33.8 °F 81% 29.73 in 10.0 mi NE 6.9 mph - N/A   Overcast
9:16 AM 41.0 °F 35.8 °F 33.8 °F 76% 29.73 in 10.0 mi NE 8.1 mph - N/A   Overcast
9:36 AM 41.0 °F 36.4 °F 32.0 °F 70% 29.73 in 10.0 mi NE 6.9 mph - N/A   Overcast
9:56 AM 41.0 °F 35.8 °F 30.2 °F 65% 29.73 in 10.0 mi NNE 8.1 mph - N/A   Overcast
10:16 AM 42.8 °F 38.6 °F 28.4 °F 57% 29.73 in 10.0 mi NNE 6.9 mph - N/A   Mostly Cloudy
10:36 AM 42.8 °F 37.0 °F 28.4 °F 57% 29.73 in 10.0 mi NNE 10.4 mph - N/A   Scattered Clouds
10:56 AM 42.8 °F 37.5 °F 28.4 °F 57% 29.73 in 10.0 mi NE 9.2 mph - N/A   Scattered Clouds
11:16 AM 44.6 °F 40.7 °F 28.4 °F 53% 29.74 in 10.0 mi NE 6.9 mph - N/A   Mostly Cloudy
11:36 AM 44.6 °F 41.4 °F 28.4 °F 53% 29.74 in 10.0 mi North 5.8 mph - N/A   Mostly Cloudy
11:56 AM 44.6 °F 42.2 °F 28.4 °F 53% 29.74 in 10.0 mi North 4.6 mph - N/A   Mostly Cloudy
12:16 PM 44.6 °F 43.1 °F 26.6 °F 49% 29.74 in 10.0 mi NNW 3.5 mph - N/A   Mostly Cloudy
12:36 PM 44.6 °F - 26.6 °F 49% 29.74 in 10.0 mi Calm Calm - N/A   Mostly Cloudy
12:56 PM 44.6 °F 42.2 °F 28.4 °F 53% 29.74 in 10.0 mi WNW 4.6 mph - N/A   Mostly Cloudy
1:16 PM 44.6 °F 42.2 °F 28.4 °F 53% 29.73 in 10.0 mi West 4.6 mph - N/A   Mostly Cloudy
1:36 PM 44.6 °F 43.1 °F 28.4 °F 53% 29.74 in 10.0 mi NNW 3.5 mph - N/A   Overcast
1:56 PM 46.4 °F 44.3 °F 28.4 °F 50% 29.73 in 10.0 mi North 4.6 mph - N/A   Mostly Cloudy
2:16 PM 44.6 °F 42.2 °F 28.4 °F 53% 29.73 in 10.0 mi NNW 4.6 mph - N/A   Mostly Cloudy
2:36 PM 46.4 °F 45.2 °F 30.2 °F 53% 29.73 in 10.0 mi North 3.5 mph - N/A   Mostly Cloudy
2:56 PM 46.4 °F 45.2 °F 26.6 °F 46% 29.73 in 10.0 mi ESE 3.5 mph - N/A   Mostly Cloudy
3:16 PM 48.2 °F - 28.4 °F 46% 29.73 in 10.0 mi Calm Calm - N/A   Mostly Cloudy
3:36 PM 46.4 °F - 30.2 °F 53% 29.73 in 10.0 mi Calm Calm - N/A   Overcast
3:56 PM 50.0 °F - 19.4 °F 30% 29.73 in 10.0 mi South 8.1 mph 19.6 mph N/A   Scattered Clouds
4:16 PM 51.8 °F - 15.8 °F 24% 29.73 in 10.0 mi South 13.8 mph 20.7 mph N/A   Partly Cloudy
4:36 PM 50.0 °F - 17.6 °F 28% 29.73 in 10.0 mi South 13.8 mph 19.6 mph N/A   Partly Cloudy
4:56 PM 50.0 °F - 15.8 °F 26% 29.74 in 10.0 mi South 11.5 mph 21.9 mph N/A   Clear
5:16 PM 48.2 °F - 15.8 °F 27% 29.74 in 10.0 mi SSE 13.8 mph 20.7 mph N/A   Clear
5:36 PM 48.2 °F - 15.8 °F 27% 29.74 in 10.0 mi South 10.4 mph - N/A   Scattered Clouds
5:56 PM 48.2 °F - 17.6 °F 30% 29.74 in 10.0 mi SW 9.2 mph - N/A   Mostly Cloudy
6:16 PM 48.2 °F - 19.4 °F 32% 29.74 in 10.0 mi SSW 12.7 mph - N/A   Mostly Cloudy
6:36 PM 48.2 °F - 19.4 °F 32% 29.74 in 10.0 mi South 8.1 mph - N/A   Overcast
6:56 PM 48.2 °F - 19.4 °F 32% 29.74 in 10.0 mi SSE 9.2 mph 19.6 mph N/A   Overcast
7:16 PM 48.2 °F - 17.6 °F 30% 29.74 in 10.0 mi SE 9.2 mph 20.7 mph N/A   Overcast
7:36 PM 48.2 °F - 17.6 °F 30% 29.74 in 10.0 mi ESE 8.1 mph 18.4 mph N/A   Overcast
7:56 PM 48.2 °F - 17.6 °F 30% 29.74 in 10.0 mi ENE 3.5 mph - N/A   Overcast
8:16 PM 46.4 °F 44.3 °F 21.2 °F 37% 29.74 in 10.0 mi WSW 4.6 mph - N/A   Overcast
8:36 PM 46.4 °F 42.9 °F 21.2 °F 37% 29.74 in 10.0 mi SSW 6.9 mph 16.1 mph N/A   Overcast
8:56 PM 46.4 °F 43.5 °F 24.8 °F 43% 29.74 in 10.0 mi NNW 5.8 mph - N/A   Overcast
9:16 PM 44.6 °F 41.4 °F 26.6 °F 49% 29.74 in 10.0 mi NNW 5.8 mph - N/A   Overcast
9:36 PM 44.6 °F 42.2 °F 30.2 °F 57% 29.75 in 10.0 mi NNW 4.6 mph - N/A   Overcast
9:56 PM 44.6 °F - 28.4 °F 53% 29.75 in 10.0 mi Calm Calm - N/A   Overcast
10:16 PM 44.6 °F - 30.2 °F 57% 29.75 in 10.0 mi Calm Calm - N/A   Overcast
10:36 PM 44.6 °F - 30.2 °F 57% 29.75 in 10.0 mi Calm Calm - N/A   Overcast
10:56 PM 42.8 °F - 33.8 °F 70% 29.75 in 10.0 mi Calm Calm - N/A   Overcast
11:16 PM 42.8 °F - 30.2 °F 61% 29.75 in 10.0 mi Calm Calm - N/A   Overcast
11:36 PM 42.8 °F - 30.2 °F 61% 29.75 in 10.0 mi Calm Calm - N/A   Overcast
11:56 PM 42.8 °F - 30.2 °F 61% 29.75 in 10.0 mi Calm Calm - N/A   Overcast